Time,TemperatureF,DewpointF,PressureIn,WindDirection,WindDirectionDegrees,WindSpeedMPH,WindSpeedGustMPH,Humidity,HourlyPrecipIn,Conditions,Clouds,dailyrainin,SoftwareType,DateUTC
2013-05-12 00:00:00,48.2,25.0,30.23,North,5,0.0,4.0,40,0.00,,---,0.00,VWS V14.01,2013-05-12 05:00:00,
2013-05-12 00:01:00,45.2,24.0,30.23,North,5,0.0,0.0,43,0.00,,---,0.00,VWS V14.01,2013-05-12 05:01:00,
2013-05-12 00:06:00,44.9,23.8,30.23,North,5,0.0,0.0,43,0.00,,---,0.00,VWS V14.01,2013-05-12 05:06:00,
2013-05-12 00:11:00,44.8,24.2,30.23,North,5,0.0,0.0,44,0.00,,---,0.00,VWS V14.01,2013-05-12 05:11:00,
2013-05-12 00:16:00,44.3,23.8,30.23,North,5,0.0,0.0,44,0.00,,---,0.00,VWS V14.01,2013-05-12 05:16:00,
2013-05-12 00:21:00,43.8,23.3,30.23,North,5,0.0,0.0,44,0.00,,---,0.00,VWS V14.01,2013-05-12 05:21:00,
2013-05-12 00:26:00,43.5,23.6,30.23,North,5,0.0,0.0,45,0.00,,---,0.00,VWS V14.01,2013-05-12 05:26:00,
2013-05-12 00:30:00,47.0,24.5,30.23,North,5,0.0,1.0,41,0.00,,---,0.00,VWS V14.01,2013-05-12 05:30:00,
2013-05-12 00:31:00,43.3,23.4,30.23,North,5,0.0,0.0,45,0.00,,---,0.00,VWS V14.01,2013-05-12 05:31:00,
2013-05-12 00:36:00,43.2,23.3,30.23,North,5,0.0,0.0,45,0.00,,---,0.00,VWS V14.01,2013-05-12 05:36:00,
2013-05-12 00:41:00,42.9,23.0,30.23,North,5,0.0,0.0,45,0.00,,---,0.00,VWS V14.01,2013-05-12 05:41:00,
2013-05-12 00:46:00,42.6,23.3,30.23,North,5,0.0,0.0,46,0.00,,---,0.00,VWS V14.01,2013-05-12 05:46:00,
2013-05-12 00:51:00,42.3,23.0,30.23,North,5,0.0,0.0,46,0.00,,---,0.00,VWS V14.01,2013-05-12 05:51:00,
2013-05-12 00:56:00,42.1,23.3,30.23,North,5,0.0,0.0,47,0.00,,---,0.00,VWS V14.01,2013-05-12 05:56:00,
2013-05-12 01:00:00,45.2,24.0,30.23,North,5,0.0,0.0,43,0.00,,---,0.00,VWS V14.01,2013-05-12 06:00:00,
2013-05-12 01:01:00,41.6,23.4,30.23,North,5,0.0,0.0,48,0.00,,---,0.00,VWS V14.01,2013-05-12 06:01:00,
2013-05-12 01:06:00,41.2,23.0,30.23,North,5,0.0,0.0,48,0.00,,---,0.00,VWS V14.01,2013-05-12 06:06:00,
2013-05-12 01:11:00,40.6,23.0,30.23,North,5,0.0,0.0,49,0.00,,---,0.00,VWS V14.01,2013-05-12 06:11:00,
2013-05-12 01:16:00,40.3,22.7,30.23,North,5,0.0,0.0,49,0.00,,---,0.00,VWS V14.01,2013-05-12 06:16:00,
2013-05-12 01:21:00,39.9,22.3,30.23,North,5,0.0,0.0,49,0.00,,---,0.00,VWS V14.01,2013-05-12 06:21:00,
2013-05-12 01:26:00,39.6,22.5,30.23,North,5,0.0,0.0,50,0.00,,---,0.00,VWS V14.01,2013-05-12 06:26:00,
2013-05-12 01:30:00,43.5,23.6,30.23,North,5,0.0,0.0,45,0.00,,---,0.00,VWS V14.01,2013-05-12 06:30:00,
2013-05-12 01:31:00,39.3,22.2,30.23,North,5,0.0,0.0,50,0.00,,---,0.00,VWS V14.01,2013-05-12 06:31:00,
2013-05-12 01:36:00,39.1,22.5,30.23,North,5,0.0,0.0,51,0.00,,---,0.00,VWS V14.01,2013-05-12 06:36:00,
2013-05-12 01:41:00,38.8,22.2,30.23,North,5,0.0,0.0,51,0.00,,---,0.00,VWS V14.01,2013-05-12 06:41:00,
2013-05-12 01:46:00,38.3,22.2,30.22,North,5,0.0,0.0,52,0.00,,---,0.00,VWS V14.01,2013-05-12 06:46:00,
2013-05-12 01:51:00,38.0,22.0,30.22,North,5,0.0,0.0,52,0.00,,---,0.00,VWS V14.01,2013-05-12 06:51:00,
2013-05-12 01:56:00,37.8,22.2,30.22,North,5,0.0,0.0,53,0.00,,---,0.00,VWS V14.01,2013-05-12 06:56:00,
2013-05-12 02:00:00,41.8,23.1,30.23,North,5,0.0,0.0,47,0.00,,---,0.00,VWS V14.01,2013-05-12 07:00:00,
2013-05-12 02:01:00,37.6,22.0,30.22,North,5,0.0,0.0,53,0.00,,---,0.00,VWS V14.01,2013-05-12 07:01:00,
2013-05-12 02:06:00,37.3,22.2,30.22,North,5,0.0,0.0,54,0.00,,---,0.00,VWS V14.01,2013-05-12 07:06:00,
2013-05-12 02:11:00,37.0,21.9,30.22,North,5,0.0,0.0,54,0.00,,---,0.00,VWS V14.01,2013-05-12 07:11:00,
2013-05-12 02:16:00,36.9,21.8,30.22,North,5,0.0,0.0,54,0.00,,---,0.00,VWS V14.01,2013-05-12 07:16:00,
2013-05-12 02:21:00,36.6,21.5,30.22,North,5,0.0,0.0,54,0.00,,---,0.00,VWS V14.01,2013-05-12 07:21:00,
2013-05-12 02:26:00,36.3,21.7,30.22,North,5,0.0,0.0,55,0.00,,---,0.00,VWS V14.01,2013-05-12 07:26:00,
2013-05-12 02:30:00,39.3,22.2,30.23,North,5,0.0,0.0,50,0.00,,---,0.00,VWS V14.01,2013-05-12 07:30:00,
2013-05-12 02:31:00,36.2,21.6,30.23,North,5,0.0,0.0,55,0.00,,---,0.00,VWS V14.01,2013-05-12 07:31:00,
2013-05-12 02:36:00,36.0,21.8,30.23,North,5,0.0,0.0,56,0.00,,---,0.00,VWS V14.01,2013-05-12 07:36:00,
2013-05-12 02:41:00,35.9,21.8,30.23,North,5,0.0,0.0,56,0.00,,---,0.00,VWS V14.01,2013-05-12 07:41:00,
2013-05-12 02:46:00,36.0,22.3,30.23,North,5,0.0,0.0,57,0.00,,---,0.00,VWS V14.01,2013-05-12 07:46:00,
2013-05-12 02:51:00,36.2,22.5,30.23,North,5,0.0,0.0,57,0.00,,---,0.00,VWS V14.01,2013-05-12 07:51:00,
2013-05-12 02:56:00,36.6,23.2,30.23,North,5,0.0,0.0,58,0.00,,---,0.00,VWS V14.01,2013-05-12 07:56:00,
2013-05-12 03:00:00,37.6,22.0,30.22,North,5,0.0,0.0,53,0.00,,---,0.00,VWS V14.01,2013-05-12 08:00:00,
2013-05-12 03:01:00,36.8,23.4,30.23,North,5,0.0,0.0,58,0.00,,---,0.00,VWS V14.01,2013-05-12 08:01:00,
2013-05-12 03:06:00,36.8,23.4,30.23,North,5,0.0,0.0,58,0.00,,---,0.00,VWS V14.01,2013-05-12 08:06:00,
2013-05-12 03:11:00,36.6,23.2,30.23,North,5,0.0,0.0,58,0.00,,---,0.00,VWS V14.01,2013-05-12 08:11:00,
2013-05-12 03:16:00,36.3,23.0,30.23,North,5,0.0,0.0,58,0.00,,---,0.00,VWS V14.01,2013-05-12 08:16:00,
2013-05-12 03:21:00,36.0,23.1,30.23,North,5,0.0,0.0,59,0.00,,---,0.00,VWS V14.01,2013-05-12 08:21:00,
2013-05-12 03:26:00,36.0,23.1,30.23,North,5,0.0,0.0,59,0.00,,---,0.00,VWS V14.01,2013-05-12 08:26:00,
2013-05-12 03:30:00,36.2,21.6,30.23,North,5,0.0,0.0,55,0.00,,---,0.00,VWS V14.01,2013-05-12 08:30:00,
2013-05-12 03:31:00,35.9,23.0,30.22,North,5,0.0,0.0,59,0.00,,---,0.00,VWS V14.01,2013-05-12 08:31:00,
2013-05-12 03:36:00,35.6,22.7,30.22,North,5,0.0,0.0,59,0.00,,---,0.00,VWS V14.01,2013-05-12 08:36:00,
2013-05-12 03:41:00,35.5,23.0,30.22,North,5,0.0,0.0,60,0.00,,---,0.00,VWS V14.01,2013-05-12 08:41:00,
2013-05-12 03:46:00,35.2,22.7,30.23,North,5,0.0,0.0,60,0.00,,---,0.00,VWS V14.01,2013-05-12 08:46:00,
2013-05-12 03:51:00,35.2,22.7,30.23,North,5,0.0,0.0,60,0.00,,---,0.00,VWS V14.01,2013-05-12 08:51:00,
2013-05-12 03:56:00,35.0,22.5,30.23,North,5,0.0,0.0,60,0.00,,---,0.00,VWS V14.01,2013-05-12 08:56:00,
2013-05-12 04:00:00,35.0,22.9,30.22,North,5,0.0,0.0,61,0.00,,---,0.00,VWS V14.01,2013-05-12 09:00:00,
2013-05-12 04:06:00,34.9,22.8,30.22,North,5,0.0,0.0,61,0.00,,---,0.00,VWS V14.01,2013-05-12 09:06:00,
2013-05-12 04:11:00,34.7,22.6,30.22,North,5,0.0,0.0,61,0.00,,---,0.00,VWS V14.01,2013-05-12 09:11:00,
2013-05-12 04:16:00,34.6,22.9,30.22,North,5,0.0,0.0,62,0.00,,---,0.00,VWS V14.01,2013-05-12 09:16:00,
2013-05-12 04:21:00,34.6,22.9,30.22,North,5,0.0,0.0,62,0.00,,---,0.00,VWS V14.01,2013-05-12 09:21:00,
2013-05-12 04:26:00,34.6,23.3,30.22,North,5,0.0,0.0,63,0.00,,---,0.00,VWS V14.01,2013-05-12 09:26:00,
2013-05-12 04:30:00,34.7,23.4,30.22,North,5,0.0,0.0,63,0.00,,---,0.00,VWS V14.01,2013-05-12 09:30:00,
2013-05-12 04:35:00,34.6,23.3,30.22,North,5,0.0,0.0,63,0.00,,---,0.00,VWS V14.01,2013-05-12 09:35:00,
2013-05-12 04:40:00,34.4,23.1,30.22,North,5,0.0,0.0,63,0.00,,---,0.00,VWS V14.01,2013-05-12 09:40:00,
2013-05-12 04:45:00,34.4,23.1,30.23,North,5,0.0,0.0,63,0.00,,---,0.00,VWS V14.01,2013-05-12 09:45:00,
2013-05-12 04:50:00,34.4,23.5,30.23,North,5,0.0,0.0,64,0.00,,---,0.00,VWS V14.01,2013-05-12 09:50:00,
2013-05-12 04:55:00,34.3,23.4,30.23,North,5,0.0,0.0,64,0.00,,---,0.00,VWS V14.01,2013-05-12 09:55:00,
2013-05-12 05:00:00,34.1,23.2,30.24,North,5,0.0,0.0,64,0.00,,---,0.00,VWS V14.01,2013-05-12 10:00:00,
2013-05-12 05:05:00,34.0,23.1,30.24,North,5,0.0,0.0,64,0.00,,---,0.00,VWS V14.01,2013-05-12 10:05:00,
2013-05-12 05:10:00,34.0,23.1,30.24,North,5,0.0,0.0,64,0.00,,---,0.00,VWS V14.01,2013-05-12 10:10:00,
2013-05-12 05:15:00,34.0,23.1,30.24,North,5,0.0,0.0,64,0.00,,---,0.00,VWS V14.01,2013-05-12 10:15:00,
2013-05-12 05:20:00,34.0,23.5,30.24,North,5,0.0,0.0,65,0.00,,---,0.00,VWS V14.01,2013-05-12 10:20:00,
2013-05-12 05:25:00,34.0,23.5,30.24,North,5,0.0,0.0,65,0.00,,---,0.00,VWS V14.01,2013-05-12 10:25:00,
2013-05-12 05:30:00,34.0,23.5,30.24,North,5,0.0,0.0,65,0.00,,---,0.00,VWS V14.01,2013-05-12 10:30:00,
2013-05-12 05:35:00,34.3,23.8,30.24,North,5,0.0,0.0,65,0.00,,---,0.00,VWS V14.01,2013-05-12 10:35:00,
2013-05-12 05:40:00,34.9,24.7,30.24,North,5,0.0,0.0,66,0.00,,---,0.00,VWS V14.01,2013-05-12 10:40:00,
2013-05-12 05:45:00,35.2,24.6,30.24,North,5,0.0,0.0,65,0.00,,---,0.00,VWS V14.01,2013-05-12 10:45:00,
2013-05-12 05:50:00,35.2,25.0,30.24,North,5,0.0,0.0,66,0.00,,---,0.00,VWS V14.01,2013-05-12 10:50:00,
2013-05-12 05:55:00,35.3,25.1,30.24,North,5,0.0,0.0,66,0.00,,---,0.00,VWS V14.01,2013-05-12 10:55:00,
2013-05-12 06:00:00,35.3,25.1,30.24,North,5,0.0,0.0,66,0.00,,---,0.00,VWS V14.01,2013-05-12 11:00:00,
2013-05-12 06:05:00,35.3,25.1,30.24,North,5,0.0,0.0,66,0.00,,---,0.00,VWS V14.01,2013-05-12 11:05:00,
2013-05-12 06:10:00,35.5,25.3,30.24,North,5,0.0,0.0,66,0.00,,---,0.00,VWS V14.01,2013-05-12 11:10:00,
2013-05-12 06:15:00,35.5,25.3,30.24,North,5,0.0,0.0,66,0.00,,---,0.00,VWS V14.01,2013-05-12 11:15:00,
2013-05-12 06:20:00,35.6,25.4,30.24,North,5,0.0,0.0,66,0.00,,---,0.00,VWS V14.01,2013-05-12 11:20:00,
2013-05-12 06:25:00,35.9,26.0,30.24,North,5,0.0,0.0,67,0.00,,---,0.00,VWS V14.01,2013-05-12 11:25:00,
2013-05-12 06:30:00,36.2,26.3,30.25,North,5,0.0,0.0,67,0.00,,---,0.00,VWS V14.01,2013-05-12 11:30:00,
2013-05-12 06:35:00,36.6,26.7,30.25,North,5,0.0,0.0,67,0.00,,---,0.00,VWS V14.01,2013-05-12 11:35:00,
2013-05-12 06:40:00,37.0,27.1,30.25,North,5,0.0,0.0,67,0.00,,---,0.00,VWS V14.01,2013-05-12 11:40:00,
2013-05-12 06:45:00,37.5,27.5,30.25,North,5,0.0,0.0,67,0.00,,---,0.00,VWS V14.01,2013-05-12 11:45:00,
2013-05-12 06:50:00,38.0,28.0,30.25,North,5,0.0,0.0,67,0.00,,---,0.00,VWS V14.01,2013-05-12 11:50:00,
2013-05-12 06:55:00,38.6,28.6,30.25,North,5,0.0,0.0,67,0.00,,---,0.00,VWS V14.01,2013-05-12 11:55:00,
2013-05-12 07:00:00,39.2,29.2,30.26,North,5,0.0,0.0,67,0.00,,---,0.00,VWS V14.01,2013-05-12 12:00:00,
2013-05-12 07:05:00,39.6,29.6,30.26,North,5,0.0,0.0,67,0.00,,---,0.00,VWS V14.01,2013-05-12 12:05:00,
2013-05-12 07:10:00,40.3,30.2,30.26,North,5,0.0,0.0,67,0.00,,---,0.00,VWS V14.01,2013-05-12 12:10:00,
2013-05-12 07:15:00,41.2,31.1,30.26,North,5,0.0,0.0,67,0.00,,---,0.00,VWS V14.01,2013-05-12 12:15:00,
2013-05-12 07:20:00,42.1,32.0,30.26,North,5,1.0,2.0,67,0.00,,---,0.00,VWS V14.01,2013-05-12 12:20:00,
2013-05-12 07:25:00,42.8,32.6,30.26,North,5,0.0,2.0,67,0.00,,---,0.00,VWS V14.01,2013-05-12 12:25:00,
2013-05-12 07:30:00,43.3,33.1,30.26,North,5,0.0,2.0,67,0.00,,---,0.00,VWS V14.01,2013-05-12 12:30:00,
2013-05-12 07:35:00,44.2,33.6,30.26,North,5,0.0,0.0,66,0.00,,---,0.00,VWS V14.01,2013-05-12 12:35:00,
2013-05-12 07:40:00,44.9,34.2,30.26,North,5,3.0,3.0,66,0.00,,---,0.00,VWS V14.01,2013-05-12 12:40:00,
2013-05-12 07:45:00,45.7,34.6,30.26,North,5,2.0,3.0,65,0.00,,---,0.00,VWS V14.01,2013-05-12 12:45:00,
2013-05-12 07:50:00,46.2,34.7,30.26,North,5,1.0,3.0,64,0.00,,---,0.00,VWS V14.01,2013-05-12 12:50:00,
2013-05-12 07:55:00,47.0,35.5,30.26,North,5,1.0,3.0,64,0.00,,---,0.00,VWS V14.01,2013-05-12 12:55:00,
2013-05-12 08:00:00,47.6,36.0,30.26,North,5,2.0,3.0,64,0.00,,---,0.00,VWS V14.01,2013-05-12 13:00:00,
2013-05-12 08:05:00,48.3,36.3,30.26,North,5,1.0,3.0,63,0.00,,---,0.00,VWS V14.01,2013-05-12 13:05:00,
2013-05-12 08:10:00,49.1,36.7,30.26,North,5,0.0,3.0,62,0.00,,---,0.00,VWS V14.01,2013-05-12 13:10:00,
2013-05-12 08:15:00,49.5,36.6,30.26,NNE,26,1.0,3.0,61,0.00,,---,0.00,VWS V14.01,2013-05-12 13:15:00,
2013-05-12 08:20:00,49.9,36.6,30.26,NNE,26,0.0,4.0,60,0.00,,---,0.00,VWS V14.01,2013-05-12 13:20:00,
2013-05-12 08:25:00,50.2,36.4,30.26,NNE,26,1.0,4.0,59,0.00,,---,0.00,VWS V14.01,2013-05-12 13:25:00,
2013-05-12 08:30:00,50.8,37.0,30.26,NNE,26,1.0,4.0,59,0.00,,---,0.00,VWS V14.01,2013-05-12 13:30:00,
2013-05-12 08:35:00,51.3,37.0,30.26,NNE,26,2.0,3.0,58,0.00,,---,0.00,VWS V14.01,2013-05-12 13:35:00,
2013-05-12 08:40:00,51.6,36.9,30.26,NNE,23,0.0,4.0,57,0.00,,---,0.00,VWS V14.01,2013-05-12 13:40:00,
2013-05-12 08:45:00,52.2,37.0,30.27,NNE,24,0.0,4.0,56,0.00,,---,0.00,VWS V14.01,2013-05-12 13:45:00,
2013-05-12 08:50:00,52.6,36.5,30.27,NNE,24,0.0,4.0,54,0.00,,---,0.00,VWS V14.01,2013-05-12 13:50:00,
2013-05-12 08:55:00,53.3,37.1,30.27,NNE,24,0.0,4.0,54,0.00,,---,0.00,VWS V14.01,2013-05-12 13:55:00,
2013-05-12 09:00:00,53.9,37.2,30.27,NNE,24,0.0,4.0,53,0.00,,---,0.00,VWS V14.01,2013-05-12 14:00:00,
2013-05-12 09:05:00,54.2,37.5,30.27,NE,51,1.0,3.0,53,0.00,,---,0.00,VWS V14.01,2013-05-12 14:05:00,
2013-05-12 09:10:00,54.4,36.7,30.27,NE,51,0.0,3.0,51,0.00,,---,0.00,VWS V14.01,2013-05-12 14:10:00,
2013-05-12 09:15:00,54.7,36.9,30.27,NE,53,1.0,3.0,51,0.00,,---,0.00,VWS V14.01,2013-05-12 14:15:00,
2013-05-12 09:20:00,55.1,36.8,30.27,NE,51,0.0,4.0,50,0.00,,---,0.00,VWS V14.01,2013-05-12 14:20:00,
2013-05-12 09:25:00,55.3,36.5,30.27,NE,51,0.0,4.0,49,0.00,,---,0.00,VWS V14.01,2013-05-12 14:25:00,
2013-05-12 09:30:00,55.4,36.6,30.27,East,92,1.0,4.0,49,0.00,,---,0.00,VWS V14.01,2013-05-12 14:30:00,
2013-05-12 09:35:00,56.0,36.6,30.27,East,92,0.0,1.0,48,0.00,,---,0.00,VWS V14.01,2013-05-12 14:35:00,
2013-05-12 09:40:00,56.5,36.5,30.27,East,91,1.0,3.0,47,0.00,,---,0.00,VWS V14.01,2013-05-12 14:40:00,
2013-05-12 09:45:00,56.2,35.7,30.27,WSW,253,0.0,3.0,46,0.00,,---,0.00,VWS V14.01,2013-05-12 14:45:00,
2013-05-12 09:50:00,56.2,35.7,30.27,SSE,162,0.0,3.0,46,0.00,,---,0.00,VWS V14.01,2013-05-12 14:50:00,
2013-05-12 09:55:00,56.5,35.4,30.27,West,272,2.0,3.0,45,0.00,,---,0.00,VWS V14.01,2013-05-12 14:55:00,
2013-05-12 10:00:00,56.3,34.7,30.27,West,259,0.0,3.0,44,0.00,,---,0.00,VWS V14.01,2013-05-12 15:00:00,
2013-05-12 10:05:00,56.3,34.7,30.27,WSW,255,1.0,4.0,44,0.00,,---,0.00,VWS V14.01,2013-05-12 15:05:00,
2013-05-12 10:10:00,56.6,35.0,30.27,North,10,3.0,4.0,44,0.00,,---,0.00,VWS V14.01,2013-05-12 15:10:00,
2013-05-12 10:15:00,56.7,35.0,30.27,NNE,16,0.0,4.0,44,0.00,,---,0.00,VWS V14.01,2013-05-12 15:15:00,
2013-05-12 10:20:00,57.2,34.9,30.27,SE,134,2.0,4.0,43,0.00,,---,0.00,VWS V14.01,2013-05-12 15:20:00,
2013-05-12 10:25:00,57.2,34.3,30.27,West,259,0.0,4.0,42,0.00,,---,0.00,VWS V14.01,2013-05-12 15:25:00,
2013-05-12 10:30:00,57.2,34.3,30.27,WSW,254,1.0,4.0,42,0.00,,---,0.00,VWS V14.01,2013-05-12 15:30:00,
2013-05-12 10:35:00,56.9,33.5,30.27,West,261,0.0,5.0,41,0.00,,---,0.00,VWS V14.01,2013-05-12 15:35:00,
2013-05-12 10:40:00,57.0,33.5,30.27,NNW,347,0.0,5.0,41,0.00,,---,0.00,VWS V14.01,2013-05-12 15:40:00,
2013-05-12 10:45:00,57.5,34.0,30.27,North,355,3.0,5.0,41,0.00,,---,0.00,VWS V14.01,2013-05-12 15:45:00,
2013-05-12 10:50:00,57.8,34.3,30.27,WSW,255,0.0,5.0,41,0.00,,---,0.00,VWS V14.01,2013-05-12 15:50:00,
2013-05-12 10:55:00,58.0,34.5,30.27,NW,310,0.0,5.0,41,0.00,,---,0.00,VWS V14.01,2013-05-12 15:55:00,
2013-05-12 11:00:00,58.0,33.8,30.27,SW,220,0.0,7.0,40,0.00,,---,0.00,VWS V14.01,2013-05-12 16:00:00,
2013-05-12 11:05:00,57.8,33.7,30.27,SW,225,3.0,4.0,40,0.00,,---,0.00,VWS V14.01,2013-05-12 16:05:00,
2013-05-12 11:10:00,58.0,33.2,30.27,WSW,248,4.0,6.0,39,0.00,,---,0.00,VWS V14.01,2013-05-12 16:10:00,
2013-05-12 11:15:00,57.6,32.8,30.27,WSW,252,2.0,6.0,39,0.00,,---,0.00,VWS V14.01,2013-05-12 16:15:00,
2013-05-12 11:20:00,57.6,32.2,30.27,NNW,341,0.0,6.0,38,0.00,,---,0.00,VWS V14.01,2013-05-12 16:20:00,
2013-05-12 11:25:00,57.8,33.0,30.27,SSW,209,0.0,7.0,39,0.00,,---,0.00,VWS V14.01,2013-05-12 16:25:00,
2013-05-12 11:30:00,58.4,33.6,30.27,SW,234,1.0,7.0,39,0.00,,---,0.00,VWS V14.01,2013-05-12 16:30:00,
2013-05-12 11:35:00,58.6,33.1,30.27,WSW,255,3.0,6.0,38,0.00,,---,0.00,VWS V14.01,2013-05-12 16:35:00,
2013-05-12 11:40:00,58.6,33.1,30.27,SW,230,3.0,6.0,38,0.00,,---,0.00,VWS V14.01,2013-05-12 16:40:00,
2013-05-12 11:45:00,58.9,33.4,30.27,NW,314,2.0,6.0,38,0.00,,---,0.00,VWS V14.01,2013-05-12 16:45:00,
2013-05-12 11:50:00,58.9,32.7,30.27,WSW,240,4.0,8.0,37,0.00,,---,0.00,VWS V14.01,2013-05-12 16:50:00,
2013-05-12 11:55:00,58.7,32.5,30.27,WNW,288,1.0,8.0,37,0.00,,---,0.00,VWS V14.01,2013-05-12 16:55:00,
2013-05-12 12:00:00,59.2,33.0,30.27,North,355,1.0,8.0,37,0.00,,---,0.00,VWS V14.01,2013-05-12 17:00:00,
2013-05-12 12:05:00,59.8,33.5,30.27,NNW,337,1.0,3.0,37,0.00,,---,0.00,VWS V14.01,2013-05-12 17:05:00,
2013-05-12 12:10:00,59.9,33.6,30.27,NNE,21,5.0,7.0,37,0.00,,---,0.00,VWS V14.01,2013-05-12 17:10:00,
2013-05-12 12:15:00,60.2,33.8,30.26,NNW,347,3.0,8.0,37,0.00,,---,0.00,VWS V14.01,2013-05-12 17:15:00,
2013-05-12 12:20:00,60.2,33.2,30.26,NE,51,1.0,8.0,36,0.00,,---,0.00,VWS V14.01,2013-05-12 17:20:00,
2013-05-12 12:25:00,59.9,32.2,30.26,NE,52,1.0,8.0,35,0.00,,---,0.00,VWS V14.01,2013-05-12 17:25:00,
2013-05-12 12:30:00,60.2,32.5,30.26,WNW,298,1.0,8.0,35,0.00,,---,0.00,VWS V14.01,2013-05-12 17:30:00,
2013-05-12 12:35:00,60.4,33.3,30.26,NW,312,0.0,3.0,36,0.00,,---,0.00,VWS V14.01,2013-05-12 17:35:00,
2013-05-12 12:40:00,60.2,32.5,30.26,South,180,0.0,3.0,35,0.00,,---,0.00,VWS V14.01,2013-05-12 17:40:00,
2013-05-12 12:45:00,60.2,32.5,30.25,NNW,342,0.0,5.0,35,0.00,,---,0.00,VWS V14.01,2013-05-12 17:45:00,
2013-05-12 12:50:00,60.9,33.1,30.25,NW,304,1.0,5.0,35,0.00,,---,0.00,VWS V14.01,2013-05-12 17:50:00,
2013-05-12 12:55:00,61.2,33.3,30.25,NW,304,2.0,5.0,35,0.00,,---,0.00,VWS V14.01,2013-05-12 17:55:00,
2013-05-12 13:00:00,61.3,33.4,30.24,NNW,329,3.0,5.0,35,0.00,,---,0.00,VWS V14.01,2013-05-12 18:00:00,
2013-05-12 13:05:00,61.3,33.4,30.24,North,355,1.0,5.0,35,0.00,,---,0.00,VWS V14.01,2013-05-12 18:05:00,
2013-05-12 13:10:00,61.2,33.3,30.24,WSW,247,1.0,5.0,35,0.00,,---,0.00,VWS V14.01,2013-05-12 18:10:00,
2013-05-12 13:15:00,61.5,33.6,30.24,NNW,330,2.0,5.0,35,0.00,,---,0.00,VWS V14.01,2013-05-12 18:15:00,
2013-05-12 13:20:00,61.8,33.9,30.24,North,351,2.0,6.0,35,0.00,,---,0.00,VWS V14.01,2013-05-12 18:20:00,
2013-05-12 13:25:00,61.6,33.0,30.24,NW,305,4.0,6.0,34,0.00,,---,0.00,VWS V14.01,2013-05-12 18:25:00,
2013-05-12 13:29:00,61.6,33.0,30.22,NNW,344,2.0,8.0,34,0.00,,---,0.00,VWS V14.01,2013-05-12 18:29:00,
2013-05-12 13:30:00,60.2,32.5,30.26,WNW,298,0.0,8.0,35,0.00,,---,0.00,VWS V14.01,2013-05-12 18:30:00,
2013-05-12 13:34:00,61.8,33.2,30.22,NW,321,2.0,3.0,34,0.00,,---,0.00,VWS V14.01,2013-05-12 18:34:00,
2013-05-12 13:39:00,62.0,33.3,30.22,NNW,341,1.0,7.0,34,0.00,,---,0.00,VWS V14.01,2013-05-12 18:39:00,
2013-05-12 13:44:00,62.1,33.4,30.22,North,355,2.0,7.0,34,0.00,,---,0.00,VWS V14.01,2013-05-12 18:44:00,
2013-05-12 13:49:00,62.3,33.6,30.22,WSW,248,1.0,7.0,34,0.00,,---,0.00,VWS V14.01,2013-05-12 18:49:00,
2013-05-12 13:54:00,62.6,33.9,30.22,North,355,6.0,7.0,34,0.00,,---,0.00,VWS V14.01,2013-05-12 18:54:00,
2013-05-12 13:59:00,62.6,33.1,30.21,West,265,2.0,7.0,33,0.00,,---,0.00,VWS V14.01,2013-05-12 18:59:00,
2013-05-12 14:00:00,61.3,33.4,30.24,North,10,5.0,6.0,35,0.00,,---,0.00,VWS V14.01,2013-05-12 19:00:00,
2013-05-12 14:04:00,62.7,34.0,30.21,North,355,0.0,6.0,34,0.00,,---,0.00,VWS V14.01,2013-05-12 19:04:00,
2013-05-12 14:09:00,63.1,34.3,30.21,North,350,5.0,7.0,34,0.00,,---,0.00,VWS V14.01,2013-05-12 19:09:00,
2013-05-12 14:14:00,62.9,33.4,30.21,NNW,343,2.0,7.0,33,0.00,,---,0.00,VWS V14.01,2013-05-12 19:14:00,
2013-05-12 14:19:00,62.9,33.4,30.21,ENE,78,0.0,7.0,33,0.00,,---,0.00,VWS V14.01,2013-05-12 19:19:00,
2013-05-12 14:24:00,62.9,34.1,30.21,NNW,342,3.0,7.0,34,0.00,,---,0.00,VWS V14.01,2013-05-12 19:24:00,
2013-05-12 14:29:00,62.7,33.2,30.21,NNW,336,7.0,9.0,33,0.00,,---,0.00,VWS V14.01,2013-05-12 19:29:00,
2013-05-12 14:30:00,61.6,33.0,30.22,NW,318,1.0,8.0,34,0.00,,---,0.00,VWS V14.01,2013-05-12 19:30:00,
2013-05-12 14:34:00,62.6,33.1,30.21,NW,313,1.0,6.0,33,0.00,,---,0.00,VWS V14.01,2013-05-12 19:34:00,
2013-05-12 14:39:00,63.1,32.8,30.21,North,5,5.0,8.0,32,0.00,,---,0.00,VWS V14.01,2013-05-12 19:39:00,
2013-05-12 14:44:00,63.1,33.6,30.20,NNW,346,3.0,8.0,33,0.00,,---,0.00,VWS V14.01,2013-05-12 19:44:00,
2013-05-12 14:49:00,63.2,33.6,30.20,NNW,338,2.0,8.0,33,0.00,,---,0.00,VWS V14.01,2013-05-12 19:49:00,
2013-05-12 14:54:00,63.2,32.9,30.20,North,9,4.0,8.0,32,0.00,,---,0.00,VWS V14.01,2013-05-12 19:54:00,
2013-05-12 14:59:00,63.2,32.9,30.19,NNE,17,2.0,8.0,32,0.00,,---,0.00,VWS V14.01,2013-05-12 19:59:00,
2013-05-12 15:00:00,62.6,33.1,30.21,West,266,3.0,7.0,33,0.00,,---,0.00,VWS V14.01,2013-05-12 20:00:00,
2013-05-12 15:04:00,63.4,33.0,30.19,NE,36,3.0,6.0,32,0.00,,---,0.00,VWS V14.01,2013-05-12 20:04:00,
2013-05-12 15:09:00,63.5,33.1,30.19,NE,51,1.0,6.0,32,0.00,,---,0.00,VWS V14.01,2013-05-12 20:09:00,
2013-05-12 15:14:00,64.2,34.5,30.19,NW,304,2.0,6.0,33,0.00,,---,0.00,VWS V14.01,2013-05-12 20:14:00,
2013-05-12 15:19:00,64.8,35.0,30.19,WNW,288,1.0,6.0,33,0.00,,---,0.00,VWS V14.01,2013-05-12 20:19:00,
2013-05-12 15:24:00,65.2,34.6,30.19,WSW,240,1.0,6.0,32,0.00,,---,0.00,VWS V14.01,2013-05-12 20:24:00,
2013-05-12 15:29:00,65.2,34.6,30.18,West,260,3.0,7.0,32,0.00,,---,0.00,VWS V14.01,2013-05-12 20:29:00,
2013-05-12 15:30:00,62.6,33.1,30.21,North,355,6.0,9.0,33,0.00,,---,0.00,VWS V14.01,2013-05-12 20:30:00,
2013-05-12 15:34:00,65.0,34.5,30.18,WSW,255,1.0,6.0,32,0.00,,---,0.00,VWS V14.01,2013-05-12 20:34:00,
2013-05-12 15:39:00,64.7,33.4,30.18,WSW,257,3.0,6.0,31,0.00,,---,0.00,VWS V14.01,2013-05-12 20:39:00,
2013-05-12 15:44:00,64.3,33.0,30.18,WSW,244,2.0,6.0,31,0.00,,---,0.00,VWS V14.01,2013-05-12 20:44:00,
2013-05-12 15:49:00,64.5,34.0,30.18,WSW,238,2.0,6.0,32,0.00,,---,0.00,VWS V14.01,2013-05-12 20:49:00,
2013-05-12 15:54:00,64.8,33.5,30.18,NE,36,1.0,6.0,31,0.00,,---,0.00,VWS V14.01,2013-05-12 20:54:00,
2013-05-12 15:59:00,65.3,34.7,30.17,SW,231,0.0,10.0,32,0.00,,---,0.00,VWS V14.01,2013-05-12 20:59:00,
2013-05-12 16:00:00,63.2,32.9,30.19,North,5,4.0,8.0,32,0.00,,---,0.00,VWS V14.01,2013-05-12 21:00:00,
2013-05-12 16:04:00,65.2,33.8,30.17,WSW,250,0.0,6.0,31,0.00,,---,0.00,VWS V14.01,2013-05-12 21:04:00,
2013-05-12 16:09:00,65.2,33.0,30.17,WSW,257,4.0,6.0,30,0.00,,---,0.00,VWS V14.01,2013-05-12 21:09:00,
2013-05-12 16:14:00,65.0,32.8,30.17,WSW,256,0.0,6.0,30,0.00,,---,0.00,VWS V14.01,2013-05-12 21:14:00,
2013-05-12 16:19:00,65.2,33.0,30.17,WNW,294,2.0,6.0,30,0.00,,---,0.00,VWS V14.01,2013-05-12 21:19:00,
2013-05-12 16:24:00,65.2,33.0,30.17,West,259,2.0,7.0,30,0.00,,---,0.00,VWS V14.01,2013-05-12 21:24:00,
2013-05-12 16:29:00,65.8,34.3,30.17,NNW,345,3.0,7.0,31,0.00,,---,0.00,VWS V14.01,2013-05-12 21:29:00,
2013-05-12 16:30:00,65.0,34.5,30.18,SW,234,3.0,7.0,32,0.00,,---,0.00,VWS V14.01,2013-05-12 21:30:00,
2013-05-12 16:34:00,66.0,33.7,30.17,SSW,213,2.0,8.0,30,0.00,,---,0.00,VWS V14.01,2013-05-12 21:34:00,
2013-05-12 16:39:00,66.1,33.8,30.17,NNW,347,2.0,8.0,30,0.00,,---,0.00,VWS V14.01,2013-05-12 21:39:00,
2013-05-12 16:44:00,66.0,32.9,30.17,WSW,254,4.0,8.0,29,0.00,,---,0.00,VWS V14.01,2013-05-12 21:44:00,
2013-05-12 16:49:00,65.8,32.7,30.16,WSW,244,3.0,8.0,29,0.00,,---,0.00,VWS V14.01,2013-05-12 21:49:00,
2013-05-12 16:54:00,66.0,32.9,30.16,West,259,2.0,8.0,29,0.00,,---,0.00,VWS V14.01,2013-05-12 21:54:00,
2013-05-12 16:59:00,65.8,32.7,30.16,NNW,339,1.0,8.0,29,0.00,,---,0.00,VWS V14.01,2013-05-12 21:59:00,
2013-05-12 17:00:00,65.3,33.9,30.17,SW,232,2.0,10.0,31,0.00,,---,0.00,VWS V14.01,2013-05-12 22:00:00,
2013-05-12 17:04:00,65.8,32.7,30.16,West,277,3.0,4.0,29,0.00,,---,0.00,VWS V14.01,2013-05-12 22:04:00,
2013-05-12 17:09:00,66.0,32.9,30.16,SW,234,1.0,5.0,29,0.00,,---,0.00,VWS V14.01,2013-05-12 22:09:00,
2013-05-12 17:14:00,66.1,33.0,30.16,WSW,244,1.0,5.0,29,0.00,,---,0.00,VWS V14.01,2013-05-12 22:14:00,
2013-05-12 17:19:00,66.1,32.1,30.16,SSE,163,1.0,5.0,28,0.00,,---,0.00,VWS V14.01,2013-05-12 22:19:00,
2013-05-12 17:24:00,66.1,33.0,30.16,SW,223,3.0,5.0,29,0.00,,---,0.00,VWS V14.01,2013-05-12 22:24:00,
2013-05-12 17:29:00,66.3,33.1,30.16,NW,311,4.0,5.0,29,0.00,,---,0.00,VWS V14.01,2013-05-12 22:29:00,
2013-05-12 17:30:00,66.0,33.7,30.17,NNW,337,1.0,7.0,30,0.00,,---,0.00,VWS V14.01,2013-05-12 22:30:00,
2013-05-12 17:34:00,66.1,33.0,30.15,SSW,212,1.0,3.0,29,0.00,,---,0.00,VWS V14.01,2013-05-12 22:34:00,
2013-05-12 17:39:00,65.8,32.7,30.15,WSW,244,1.0,4.0,29,0.00,,---,0.00,VWS V14.01,2013-05-12 22:39:00,
2013-05-12 17:44:00,65.5,33.3,30.15,WSW,240,3.0,5.0,30,0.00,,---,0.00,VWS V14.01,2013-05-12 22:44:00,
2013-05-12 17:49:00,65.0,32.8,30.15,WSW,256,1.0,5.0,30,0.00,,---,0.00,VWS V14.01,2013-05-12 22:49:00,
2013-05-12 17:54:00,65.0,32.8,30.15,WSW,256,2.0,5.0,30,0.00,,---,0.00,VWS V14.01,2013-05-12 22:54:00,
2013-05-12 17:59:00,65.3,33.1,30.15,SW,233,3.0,5.0,30,0.00,,---,0.00,VWS V14.01,2013-05-12 22:59:00,
2013-05-12 18:00:00,65.8,32.7,30.16,NNW,338,3.0,8.0,29,0.00,,---,0.00,VWS V14.01,2013-05-12 23:00:00,
2013-05-12 18:04:00,65.6,34.2,30.14,SW,233,1.0,2.0,31,0.00,,---,0.00,VWS V14.01,2013-05-12 23:04:00,
2013-05-12 18:09:00,65.6,33.4,30.14,SW,234,0.0,6.0,30,0.00,,---,0.00,VWS V14.01,2013-05-12 23:09:00,
2013-05-12 18:14:00,65.5,34.1,30.14,SW,236,1.0,6.0,31,0.00,,---,0.00,VWS V14.01,2013-05-12 23:14:00,
2013-05-12 18:19:00,65.2,33.8,30.14,WSW,250,1.0,6.0,31,0.00,,---,0.00,VWS V14.01,2013-05-12 23:19:00,
2013-05-12 18:24:00,64.8,33.5,30.14,WSW,250,1.0,6.0,31,0.00,,---,0.00,VWS V14.01,2013-05-12 23:24:00,
2013-05-12 18:29:00,64.3,33.0,30.14,West,266,1.0,6.0,31,0.00,,---,0.00,VWS V14.01,2013-05-12 23:29:00,
2013-05-12 18:30:00,66.3,33.1,30.15,South,178,3.0,5.0,29,0.00,,---,0.00,VWS V14.01,2013-05-12 23:30:00,
2013-05-12 18:34:00,64.2,33.0,30.14,West,266,0.0,1.0,31,0.00,,---,0.00,VWS V14.01,2013-05-12 23:34:00,
2013-05-12 18:39:00,64.2,33.0,30.14,West,266,3.0,3.0,31,0.00,,---,0.00,VWS V14.01,2013-05-12 23:39:00,
2013-05-12 18:44:00,64.5,34.0,30.14,SSW,200,2.0,3.0,32,0.00,,---,0.00,VWS V14.01,2013-05-12 23:44:00,
2013-05-12 18:49:00,64.5,34.0,30.14,SW,229,1.0,3.0,32,0.00,,---,0.00,VWS V14.01,2013-05-12 23:49:00,
2013-05-12 18:54:00,64.3,33.0,30.14,WSW,255,0.0,4.0,31,0.00,,---,0.00,VWS V14.01,2013-05-12 23:54:00,
2013-05-12 18:59:00,64.2,33.0,30.14,WSW,255,0.0,4.0,31,0.00,,---,0.00,VWS V14.01,2013-05-12 23:59:00,
2013-05-12 19:00:00,65.5,33.3,30.14,SW,233,1.0,5.0,30,0.00,,---,0.00,VWS V14.01,2013-05-13 00:00:00,
2013-05-12 19:04:00,63.9,33.5,30.14,SW,215,1.0,3.0,32,0.00,,---,0.00,VWS V14.01,2013-05-13 00:04:00,
2013-05-12 19:09:00,63.7,33.3,30.14,SW,236,0.0,3.0,32,0.00,,---,0.00,VWS V14.01,2013-05-13 00:09:00,
2013-05-12 19:14:00,63.4,33.0,30.14,SW,236,0.0,3.0,32,0.00,,---,0.00,VWS V14.01,2013-05-13 00:14:00,
2013-05-12 19:19:00,63.1,33.6,30.14,SW,236,0.0,3.0,33,0.00,,---,0.00,VWS V14.01,2013-05-13 00:19:00,
2013-05-12 19:24:00,62.9,33.4,30.14,SW,236,0.0,3.0,33,0.00,,---,0.00,VWS V14.01,2013-05-13 00:24:00,
2013-05-12 19:29:00,62.9,34.1,30.14,SW,236,0.0,3.0,34,0.00,,---,0.00,VWS V14.01,2013-05-13 00:29:00,
2013-05-12 19:30:00,64.3,33.0,30.14,West,266,0.0,6.0,31,0.00,,---,0.00,VWS V14.01,2013-05-13 00:30:00,
2013-05-12 19:34:00,62.9,34.1,30.13,SW,236,0.0,1.0,34,0.00,,---,0.00,VWS V14.01,2013-05-13 00:34:00,
2013-05-12 19:39:00,62.9,34.1,30.13,SW,234,0.0,1.0,34,0.00,,---,0.00,VWS V14.01,2013-05-13 00:39:00,
2013-05-12 19:44:00,62.7,34.0,30.13,SW,234,0.0,1.0,34,0.00,,---,0.00,VWS V14.01,2013-05-13 00:44:00,
2013-05-12 19:49:00,62.7,34.0,30.13,SW,234,0.0,1.0,34,0.00,,---,0.00,VWS V14.01,2013-05-13 00:49:00,
2013-05-12 19:54:00,62.6,34.6,30.13,SW,234,0.0,1.0,35,0.00,,---,0.00,VWS V14.01,2013-05-13 00:54:00,
2013-05-12 19:59:00,62.4,34.4,30.13,SW,234,0.0,1.0,35,0.00,,---,0.00,VWS V14.01,2013-05-13 00:59:00,
2013-05-12 20:00:00,64.0,32.8,30.14,South,180,0.0,4.0,31,0.00,,---,0.00,VWS V14.01,2013-05-13 01:00:00,
2013-05-12 20:04:00,62.3,34.3,30.13,SW,234,0.0,0.0,35,0.00,,---,0.00,VWS V14.01,2013-05-13 01:04:00,
2013-05-12 20:09:00,62.1,34.2,30.13,SW,234,0.0,0.0,35,0.00,,---,0.00,VWS V14.01,2013-05-13 01:09:00,
2013-05-12 20:14:00,61.8,34.6,30.13,SW,234,0.0,0.0,36,0.00,,---,0.00,VWS V14.01,2013-05-13 01:14:00,
2013-05-12 20:19:00,61.5,34.3,30.13,SW,234,0.0,0.0,36,0.00,,---,0.00,VWS V14.01,2013-05-13 01:19:00,
2013-05-12 20:24:00,61.3,34.8,30.13,SW,234,0.0,0.0,37,0.00,,---,0.00,VWS V14.01,2013-05-13 01:24:00,
2013-05-12 20:29:00,60.9,34.5,30.13,SW,234,0.0,0.0,37,0.00,,---,0.00,VWS V14.01,2013-05-13 01:29:00,
2013-05-12 20:30:00,62.9,34.1,30.13,SW,236,0.0,3.0,34,0.00,,---,0.00,VWS V14.01,2013-05-13 01:30:00,
2013-05-12 20:34:00,60.5,34.8,30.14,SW,234,0.0,0.0,38,0.00,,---,0.00,VWS V14.01,2013-05-13 01:34:00,
2013-05-12 20:39:00,60.2,34.5,30.14,SW,234,0.0,0.0,38,0.00,,---,0.00,VWS V14.01,2013-05-13 01:39:00,
2013-05-12 20:44:00,59.8,34.8,30.14,SW,234,0.0,0.0,39,0.00,,---,0.00,VWS V14.01,2013-05-13 01:44:00,
2013-05-12 20:49:00,59.2,34.3,30.14,SW,234,0.0,0.0,39,0.00,,---,0.00,VWS V14.01,2013-05-13 01:49:00,
2013-05-12 20:54:00,58.7,34.5,30.14,SW,234,0.0,0.0,40,0.00,,---,0.00,VWS V14.01,2013-05-13 01:54:00,
2013-05-12 20:59:00,58.1,34.5,30.14,SW,234,0.0,0.0,41,0.00,,---,0.00,VWS V14.01,2013-05-13 01:59:00,
2013-05-12 21:00:00,62.4,34.4,30.13,SW,234,0.0,1.0,35,0.00,,---,0.00,VWS V14.01,2013-05-13 02:00:00,
2013-05-12 21:04:00,57.5,35.2,30.14,SW,234,0.0,0.0,43,0.00,,---,0.00,VWS V14.01,2013-05-13 02:04:00,
2013-05-12 21:09:00,56.9,35.2,30.14,SW,234,0.0,0.0,44,0.00,,---,0.00,VWS V14.01,2013-05-13 02:09:00,
2013-05-12 21:14:00,56.3,34.7,30.14,SW,234,0.0,0.0,44,0.00,,---,0.00,VWS V14.01,2013-05-13 02:14:00,
2013-05-12 21:19:00,56.0,35.5,30.14,SW,234,0.0,0.0,46,0.00,,---,0.00,VWS V14.01,2013-05-13 02:19:00,
2013-05-12 21:24:00,56.0,35.5,30.14,WSW,238,0.0,3.0,46,0.00,,---,0.00,VWS V14.01,2013-05-13 02:24:00,
2013-05-12 21:29:00,56.0,35.5,30.14,WSW,238,0.0,3.0,46,0.00,,---,0.00,VWS V14.01,2013-05-13 02:29:00,
2013-05-12 21:30:00,60.9,34.5,30.14,SW,234,0.0,0.0,37,0.00,,---,0.00,VWS V14.01,2013-05-13 02:30:00,
2013-05-12 21:34:00,56.2,36.3,30.15,WSW,239,1.0,2.0,47,0.00,,---,0.00,VWS V14.01,2013-05-13 02:34:00,
2013-05-12 21:39:00,56.3,36.3,30.15,WSW,239,0.0,2.0,47,0.00,,---,0.00,VWS V14.01,2013-05-13 02:39:00,
2013-05-12 21:44:00,56.5,36.5,30.15,WSW,239,0.0,2.0,47,0.00,,---,0.00,VWS V14.01,2013-05-13 02:44:00,
2013-05-12 21:49:00,56.5,36.5,30.15,WSW,239,2.0,2.0,47,0.00,,---,0.00,VWS V14.01,2013-05-13 02:49:00,
2013-05-12 21:54:00,56.3,36.9,30.15,WSW,239,0.0,2.0,48,0.00,,---,0.00,VWS V14.01,2013-05-13 02:54:00,
2013-05-12 21:59:00,56.2,36.8,30.15,WSW,239,0.0,2.0,48,0.00,,---,0.00,VWS V14.01,2013-05-13 02:59:00,
2013-05-12 22:00:00,58.0,35.1,30.14,SW,234,0.0,0.0,42,0.00,,---,0.00,VWS V14.01,2013-05-13 03:00:00,
2013-05-12 22:04:00,56.0,36.6,30.16,WSW,239,0.0,1.0,48,0.00,,---,0.00,VWS V14.01,2013-05-13 03:04:00,
2013-05-12 22:09:00,55.9,37.0,30.16,WSW,239,0.0,2.0,49,0.00,,---,0.00,VWS V14.01,2013-05-13 03:09:00,
2013-05-12 22:14:00,55.7,36.8,30.16,WSW,240,0.0,2.0,49,0.00,,---,0.00,VWS V14.01,2013-05-13 03:14:00,
2013-05-12 22:19:00,55.4,37.1,30.16,WSW,240,0.0,2.0,50,0.00,,---,0.00,VWS V14.01,2013-05-13 03:19:00,
2013-05-12 22:23:00,55.3,37.0,30.16,WSW,240,1.0,2.0,50,0.00,,---,0.00,VWS V14.01,2013-05-13 03:23:00,
2013-05-12 22:28:00,55.1,37.3,30.16,WSW,240,1.0,2.0,51,0.00,,---,0.00,VWS V14.01,2013-05-13 03:28:00,
2013-05-12 22:30:00,56.0,35.5,30.15,WSW,238,0.0,3.0,46,0.00,,---,0.00,VWS V14.01,2013-05-13 03:30:00,
2013-05-12 22:33:00,55.0,37.2,30.16,WSW,240,0.0,1.0,51,0.00,,---,0.00,VWS V14.01,2013-05-13 03:33:00,
2013-05-12 22:38:00,54.8,37.5,30.16,WSW,240,0.0,1.0,52,0.00,,---,0.00,VWS V14.01,2013-05-13 03:38:00,
2013-05-12 22:43:00,54.5,37.2,30.16,WSW,240,0.0,1.0,52,0.00,,---,0.00,VWS V14.01,2013-05-13 03:43:00,
2013-05-12 22:48:00,54.4,37.6,30.16,WSW,240,0.0,1.0,53,0.00,,---,0.00,VWS V14.01,2013-05-13 03:48:00,
2013-05-12 22:53:00,54.2,37.5,30.16,WSW,240,0.0,1.0,53,0.00,,---,0.00,VWS V14.01,2013-05-13 03:53:00,
2013-05-12 22:58:00,53.9,37.7,30.16,WSW,240,0.0,1.0,54,0.00,,---,0.00,VWS V14.01,2013-05-13 03:58:00,
2013-05-12 23:00:00,56.2,36.8,30.16,WSW,239,0.0,2.0,48,0.00,,---,0.00,VWS V14.01,2013-05-13 04:00:00,
2013-05-12 23:01:00,53.8,37.6,30.16,WSW,240,0.0,0.0,54,0.00,,---,0.00,VWS V14.01,2013-05-13 04:01:00,
2013-05-12 23:06:00,53.6,37.4,30.16,WSW,240,0.0,0.0,54,0.00,,---,0.00,VWS V14.01,2013-05-13 04:06:00,
2013-05-12 23:11:00,53.3,37.6,30.16,WSW,240,0.0,0.0,55,0.00,,---,0.00,VWS V14.01,2013-05-13 04:11:00,
2013-05-12 23:16:00,53.1,37.4,30.16,WSW,240,0.0,0.0,55,0.00,,---,0.00,VWS V14.01,2013-05-13 04:16:00,
2013-05-12 23:21:00,52.5,36.8,30.16,WSW,240,0.0,0.0,55,0.00,,---,0.00,VWS V14.01,2013-05-13 04:21:00,
2013-05-12 23:26:00,51.9,36.7,30.16,WSW,240,0.0,0.0,56,0.00,,---,0.00,VWS V14.01,2013-05-13 04:26:00,
2013-05-12 23:30:00,55.1,37.3,30.16,WSW,240,0.0,2.0,51,0.00,,---,0.00,VWS V14.01,2013-05-13 04:30:00,
2013-05-12 23:31:00,51.1,36.0,30.16,WSW,240,0.0,0.0,56,0.00,,---,0.00,VWS V14.01,2013-05-13 04:31:00,
2013-05-12 23:36:00,50.4,35.3,30.16,WSW,240,0.0,0.0,56,0.00,,---,0.00,VWS V14.01,2013-05-13 04:36:00,
2013-05-12 23:41:00,49.8,35.2,30.16,WSW,240,0.0,0.0,57,0.00,,---,0.00,VWS V14.01,2013-05-13 04:41:00,
2013-05-12 23:46:00,49.2,34.6,30.16,WSW,240,0.0,0.0,57,0.00,,---,0.00,VWS V14.01,2013-05-13 04:46:00,
2013-05-12 23:51:00,48.8,34.7,30.16,WSW,240,0.0,0.0,58,0.00,,---,0.00,VWS V14.01,2013-05-13 04:51:00,
2013-05-12 23:56:00,48.3,34.7,30.16,WSW,240,0.0,0.0,59,0.00,,---,0.00,VWS V14.01,2013-05-13 04:56:00,